Aérodrome :
LOGIN :

S'inscrire | Disclaimer

   EN    FR    IT 

 










Légende :    VFR   VFR Marginal   IFR   IFR Intensif   IFR Très Intensif
Visi : 
Plafond : 
>= 8 km
>= 3000ft
5 à 8 km
1000 à 3000 ft
1500m à 5 km
500 à 1000 ft
800 à 1500m
200 à 500 ft
< 800m
< 200 ft
Symboles :   Orages  Brouillard  Fortes neiges  Fortes précipitations  Vent > 20 kt
SIGMETs :   Divers  Orages  Givrage  Turbulence  Onde Orograph.  Cendres Volcan.







- Altitude de l'aérodrome : 1682 ft
- Code IATA : VIT


LEVT - Vitoria Gasteiz

DERNIER METAR :
  • 221900Z 01006KT 9999 FEW025 21/14 Q1025

METARs EXPIRÉS :
  • 221830Z 02009KT 9999 FEW030 22/14 Q1025
  • 221800Z 03009KT 360V060 9999 FEW030 23/15 Q1025
  • 221730Z 02014KT 9999 FEW035 24/15 Q1025
  • 221700Z 02013KT 9999 FEW035 25/15 Q1025
  • 221630Z 02013KT 9999 FEW030 26/14 Q1024

TAF TAF LEVT
Valide du 22 à 18h jusqu'au 23 à 18h UTC


221700Z 2218/2318 VRB05KT 9999 FEW020 TX30/2315Z TN12/2306Z
PROB30
TEMPO 2218/2220 01010KT
PROB30
TEMPO 2302/2306 0800 BCFG BKN001
Pas de NOTAMs connus pour ce terrain.



MET'MAP, la Météo Aéronautique d'un coup d'oeil ! - Copyright ORBIFLY Décembre 2007 - Disclaimer

ORBIFLY MET'MAP TEAM :

Programmation & Développement : Alexandra Zaïnal
Conception & Développement : Baudouin d'Aumeries
Co-Programmation & Développement : Marc-Olivier Méhu
Soutien technique & logistique : Manuel Goepfert

Contact : metmap@orbifly.com




SOURCES & CREDITS :

   NOAA